Content
SEND FEEDBACK

Daily
Averages
Monthly
Summary
United States of America

TRUCKEE, CALIFORNIA


Home > North America > United States > California
Elevation: 5966 feet     Latitude: 39 20N     Longitude: 120 11W

WEATHER
 
SELECT A DAY
Number of Records: 282,497;   Date Range: 1/1/95 - 8/30/14
 
SHARE

PRINT THIS DATA

[ ← Previous Day ]
WEATHER ALMANAC - MARCH 23, 2013
[ Next Day → ]
[ °C ]   °F
Weather ElementAverageHighLow
Temperature29.8 °F53.6 °F (3:55 pm)15.8 °F (5:35 am)
Dewpoint15.4 °F23 °F (10:15 pm)8.6 °F (1:45 pm)
Humidity59.8 %80 % (2:35 am)18 % (3:55 pm)
Barometer30.13 in30.18 in (7:55 am)30.06 in (4:55 pm)
Wind Speed3.9 mph16.1 mph (7:55 pm)
Wind Gust21.9 mph (3:55 pm)
Weather ElementAverage
Visibility9.9 mi
Wind DirectionE (85.6 °)

Weather ElementTotal
Precipitation---
Heating Degree Days30.3 (Base 65)
Averaged from 48 records on March 23, 2013
WEATHER CONDITIONS BREAKOUT
WIND DIRECTION BREAKOUT
WEATHER BY HOUR - MARCH 23, 2013
[ °C ]   °F
Local TimeTemperatureDewpointHumidityBarometerVisibilityWind DirectionWind SpeedGust SpeedPrecipitationEventsConditions
12:35 AM23.0 °F10.4 °F59 %30.15 in10.0 miCalmClear
12:55 AM23.0 °F10.4 °F59 %30.14 in10.0 miCalmClear
1:15 AM21.2 °F12.2 °F68 %30.15 in10.0 miCalmClear
1:35 AM23.0 °F10.4 °F59 %30.15 in10.0 miCalmClear
1:55 AM19.4 °F12.2 °F74 %30.15 in10.0 miCalmClear
2:15 AM19.4 °F12.2 °F74 %30.16 in10.0 miCalmClear
2:35 AM19.4 °F14.0 °F80 %30.16 in10.0 miCalmClear
2:55 AM17.6 °F12.2 °F79 %30.15 in10.0 miCalmClear
3:15 AM17.6 °F12.2 °F79 %30.15 in10.0 miCalmClear
3:35 AM17.6 °F10.4 °F73 %30.14 in10.0 miCalmClear
3:55 AM17.6 °F10.4 °F73 %30.14 in10.0 miCalmClear
4:15 AM17.6 °F10.4 °F73 %30.14 in10.0 miCalmClear
4:35 AM17.6 °F10.4 °F73 %30.14 in10.0 miCalmClear
4:55 AM17.6 °F10.4 °F73 %30.14 in10.0 miCalmClear
5:15 AM17.6 °F10.4 °F73 %30.14 in10.0 miCalmClear
5:35 AM15.8 °F10.4 °F79 %30.14 in10.0 miCalmClear
5:55 AM15.8 °F10.4 °F79 %30.14 in10.0 miCalmClear
6:15 AM15.8 °F10.4 °F79 %30.15 in10.0 miCalmClear
6:35 AM15.8 °F10.4 °F79 %30.15 in10.0 miCalmClear
6:45 AM15.8 °F10.4 °F79 %30.15 in10.0 miCalmClear
7:55 AM17.6 °F12.2 °F79 %30.18 in10.0 miCalmClear
8:45 AM23.0 °F14.0 °F68 %30.17 in10.0 miCalmClear
9:55 AM28.4 °F12.2 °F51 %30.16 in10.0 miCalmClear
10:55 AM35.6 °F14.0 °F41 %30.15 in10.0 miNNE (30°)3.5 mphClear
11:55 AM41.0 °F12.2 °F31 %30.13 in10.0 miWest (260°)4.6 mphClear
1:45 PM50.0 °F8.6 °F19 %30.09 in10.0 miNNE (20°)5.8 mphClear
3:55 PM53.6 °F10.4 °F18 %30.07 in10.0 miWest (270°)13.8 mph21.9 mphClear
4:55 PM51.8 °F19.4 °F28 %30.06 in10.0 miWNW (290°)12.7 mph18.4 mphClear
5:45 PM50.0 °F17.6 °F28 %30.07 in10.0 miWSW (250°)15.0 mph19.6 mphClear
5:55 PM50.0 °F17.6 °F28 %30.08 in10.0 miWSW (250°)13.8 mph19.6 mphClear
6:15 PM48.2 °F19.4 °F32 %30.08 in10.0 miWest (270°)15.0 mph19.6 mphClear
6:35 PM46.4 °F21.2 °F37 %30.08 in10.0 miWest (260°)12.7 mph19.6 mphClear
6:55 PM46.4 °F21.2 °F37 %30.08 in10.0 miWest (260°)10.4 mphClear
7:15 PM44.6 °F21.2 °F39 %30.09 in10.0 miWest (270°)11.5 mphClear
7:35 PM42.8 °F21.2 °F42 %30.09 in10.0 miWest (270°)13.8 mph19.6 mphClear
7:55 PM42.8 °F19.4 °F39 %30.09 in10.0 miWest (270°)16.1 mphClear
8:15 PM41.0 °F19.4 °F42 %30.10 in10.0 miWest (270°)6.9 mph16.1 mphClear
8:35 PM37.4 °F21.2 °F52 %30.11 in7.0 miEast (90°)6.9 mphClear
8:55 PM37.4 °F21.2 °F52 %30.11 in10.0 miCalmClear
9:15 PM35.6 °F19.4 °F52 %30.12 in10.0 miCalmClear
9:35 PM32.0 °F21.2 °F64 %30.13 in10.0 miSSE (150°)5.8 mphClear
9:55 PM32.0 °F21.2 °F64 %30.13 in10.0 miSouth (170°)4.6 mphClear
10:15 PM30.2 °F23.0 °F75 %30.14 in10.0 miSSE (160°)3.5 mphClear
10:35 PM28.4 °F21.2 °F74 %30.14 in10.0 miSSE (150°)4.6 mphClear
10:55 PM28.4 °F23.0 °F80 %30.14 in10.0 miSSE (150°)4.6 mphClear
11:15 PM28.4 °F23.0 °F80 %30.15 in10.0 miCalmClear
11:35 PM28.4 °F23.0 °F80 %30.15 in10.0 miCalmClear
11:55 PM28.4 °F21.2 °F74 %30.15 in10.0 miCalmClear
Hourly data recorded from KTRK, located miles away from Truckee, California







STORIES FROM OUR PARTNERS